Location: ??????
(55.7522°N, 37.6156°E)
Time: 16:52:54
(UTC+00:00)

Meteor 2-5 Rocket - Pass Details

Date: 14 June 2025
Orbit: 832 x 911 km, 81.2° (Epoch: 12 July)

Event Time Altitude Azimuth Distance (km) Brightness Sun altitude
Exits shadow 21:45:17 14° 189° (S) 2,310 5.3 -10.9°
Maximum altitude 21:50:28 84° 103° (ESE) 925 3.9 -10.8°
Drops below altitude 10° 21:56:28 10° 16° (NNE) 2,609 7.8 -10.7°
Sets 21:58:56 0° 16° (NNE) 3,549 9.0 -10.7°
